WXM80 ListenWXM80 Stop

You find our weather info also at:

UK Metoffice

WeatherCloud

Weather Underground

Northeastern Weather Network

AWEKAS

Citizen Weather Observer Program (CWOP)

HAMweather, WeatherForYou, PWS Weather


Weather Underground History page Text

Daily Summary for October 31, 2017 Units:  English    Metric   Both
« Previous Day
Next Day »
Daily Weekly Monthly Yearly Custom
  High: Low: Average:
Temperature: 59.2 °F 45.6 °F 51.6 °F
Dew Point: 43.2 °F 34.7 °F 39 °F
Humidity: 83 % 45 % 63 %
Wind Speed: 11.0 mph 0.0 mph 3.3 mph
Wind Gust: 20.7 mph - -
Wind:- - WSW
Pressure: 30.28 in 29.89 in -
Precipitation: 0.12 in    
Historical Graphs
 
 
Tabular Data for October 31, 2017
Time Temperature Dew Point Pressure Wind Wind Speed Wind Gust Humidity Rainfall Rate (Hourly)
00:01 51.0 °F 40.0 °F 29.89 in SW 5.5 mph 10.4 mph 66 % 0.01 in
00:06 51.0 °F 39.6 °F 29.89 in SSW 4.1 mph 9.2 mph 65 % 0.01 in
00:11 51.0 °F 39.6 °F 29.90 in South 1.7 mph 11.5 mph 65 % 0.01 in
00:16 51.1 °F 39.3 °F 29.90 in SSW 7.2 mph 10.4 mph 64 % 0.01 in
00:21 51.2 °F 39.8 °F 29.90 in SW 6.8 mph 9.2 mph 65 % 0.01 in
00:27 51.3 °F 39.9 °F 29.90 in SW 5.3 mph 13.8 mph 65 % 0.01 in
00:32 51.4 °F 40.0 °F 29.91 in SSW 7.2 mph 9.0 mph 65 % 0.01 in
00:37 51.5 °F 40.1 °F 29.91 in WSW 4.9 mph 11.5 mph 65 % 0.01 in
00:42 51.6 °F 40.2 °F 29.91 in West 0.6 mph 2.3 mph 65 % 0.01 in
00:47 51.7 °F 40.3 °F 29.90 in South 5.5 mph 11.5 mph 65 % 0.01 in
00:52 51.7 °F 40.3 °F 29.91 in SSW 6.4 mph 13.8 mph 65 % 0.01 in
00:57 51.7 °F 40.7 °F 29.90 in SSW 4.9 mph 8.0 mph 66 % 0.01 in
01:02 51.8 °F 40.8 °F 29.91 in SW 3.5 mph 9.2 mph 66 % 0.01 in
01:03 51.7 °F 40.7 °F 29.90 in SSW 4.9 mph 11.5 mph 66 % 0.01 in
01:08 51.7 °F 40.7 °F 29.91 in SW 3.8 mph 9.2 mph 66 % 0.01 in
01:13 51.7 °F 41.1 °F 29.90 in SSW 2.0 mph 8.1 mph 67 % 0.00 in
01:18 51.7 °F 41.1 °F 29.91 in WSW 2.9 mph 8.0 mph 67 % 0.00 in
01:23 51.6 °F 41.4 °F 29.90 in South 5.4 mph 11.0 mph 68 % 0.00 in
01:28 51.5 °F 41.3 °F 29.90 in SSW 4.1 mph 6.0 mph 68 % 0.01 in
01:33 51.5 °F 41.3 °F 29.91 in SSW 1.4 mph 3.5 mph 68 % 0.01 in
01:38 51.5 °F 41.7 °F 29.91 in SE 2.5 mph 5.8 mph 69 % 0.01 in
01:43 51.4 °F 41.9 °F 29.91 in West 3.2 mph 8.0 mph 70 % 0.01 in
01:48 51.4 °F 41.9 °F 29.91 in WSW 1.6 mph 6.9 mph 70 % 0.01 in
01:53 51.3 °F 41.8 °F 29.92 in WNW 0.6 mph 3.5 mph 70 % 0.01 in
01:58 51.3 °F 42.2 °F 29.92 in SSW 3.2 mph 3.5 mph 71 % 0.01 in
02:03 51.2 °F 42.1 °F 29.92 in SSW 1.7 mph 9.2 mph 71 % 0.01 in
02:14 51.1 °F 42.4 °F 29.93 in SW 1.9 mph 6.9 mph 72 % 0.01 in
02:19 51.0 °F 42.3 °F 29.93 in SSW 3.5 mph 6.9 mph 72 % 0.01 in
02:24 50.9 °F 42.2 °F 29.93 in SW 2.0 mph 6.9 mph 72 % 0.01 in
02:29 50.8 °F 42.1 °F 29.94 in SSW 5.9 mph 11.5 mph 72 % 0.00 in
02:34 50.8 °F 42.1 °F 29.94 in SW 4.6 mph 8.1 mph 72 % 0.00 in
02:39 50.8 °F 42.5 °F 29.94 in SSW 3.3 mph 5.0 mph 73 % 0.01 in
02:44 50.7 °F 42.4 °F 29.94 in WSW 4.5 mph 10.4 mph 73 % 0.01 in
02:49 50.7 °F 42.4 °F 29.94 in SW 3.1 mph 6.0 mph 73 % 0.01 in
02:54 50.6 °F 42.3 °F 29.94 in WSW 3.6 mph 7.0 mph 73 % 0.01 in
02:59 50.6 °F 42.6 °F 29.94 in SSW 3.8 mph 9.2 mph 74 % 0.01 in
03:04 50.5 °F 42.5 °F 29.94 in West 3.9 mph 6.9 mph 74 % 0.01 in
03:19 50.4 °F 42.8 °F 29.95 in SSW 4.1 mph 5.8 mph 75 % 0.01 in
03:24 50.3 °F 43.0 °F 29.95 in West 1.7 mph 6.9 mph 76 % 0.01 in
03:30 50.2 °F 42.9 °F 29.95 in SSW 2.5 mph 4.6 mph 76 % 0.01 in
03:35 50.1 °F 42.8 °F 29.95 in West 3.1 mph 8.1 mph 76 % 0.01 in
03:40 50.0 °F 42.7 °F 29.95 in WSW 3.9 mph 10.4 mph 76 % 0.00 in
03:45 49.9 °F 42.6 °F 29.95 in WSW 4.3 mph 9.2 mph 76 % 0.00 in
03:50 49.9 °F 42.6 °F 29.96 in West 4.7 mph 8.1 mph 76 % 0.00 in
03:55 49.9 °F 42.6 °F 29.96 in SW 3.9 mph 9.0 mph 76 % 0.00 in
04:00 49.9 °F 43.0 °F 29.96 in SSW 6.2 mph 11.5 mph 77 % 0.00 in
04:05 49.8 °F 42.9 °F 29.96 in SW 1.8 mph 8.1 mph 77 % 0.01 in
04:10 49.8 °F 42.9 °F 29.96 in SW 6.2 mph 11.5 mph 77 % 0.01 in
04:15 49.8 °F 43.2 °F 29.97 in SSW 4.1 mph 6.9 mph 78 % 0.01 in
04:20 49.8 °F 42.9 °F 29.97 in SW 1.9 mph 5.8 mph 77 % 0.01 in
04:25 49.9 °F 43.0 °F 29.97 in West 3.2 mph 5.0 mph 77 % 0.01 in
04:30 49.9 °F 43.0 °F 29.97 in WSW 2.9 mph 7.0 mph 77 % 0.01 in
04:35 49.9 °F 43.0 °F 29.97 in West 3.4 mph 5.8 mph 77 % 0.01 in
04:40 49.9 °F 43.0 °F 29.97 in SW 1.4 mph 4.6 mph 77 % 0.01 in
04:46 49.9 °F 43.0 °F 29.97 in SW 2.0 mph 6.0 mph 77 % 0.00 in
04:51 49.8 °F 42.9 °F 29.97 in SW 3.0 mph 7.0 mph 77 % 0.00 in
04:56 49.8 °F 42.5 °F 29.97 in SW 3.0 mph 7.0 mph 76 % 0.00 in
05:01 49.7 °F 42.4 °F 29.97 in SW 3.0 mph 8.0 mph 76 % 0.01 in
05:06 49.6 °F 42.3 °F 29.97 in SW 2.0 mph 8.0 mph 76 % 0.00 in
05:11 49.6 °F 42.3 °F 29.98 in SSW 2.6 mph 9.2 mph 76 % 0.00 in
05:16 49.5 °F 42.2 °F 29.98 in SW 2.0 mph 5.0 mph 76 % 0.00 in
05:21 49.4 °F 42.1 °F 29.98 in SW 2.0 mph 6.0 mph 76 % 0.00 in
05:26 49.3 °F 42.4 °F 29.98 in WSW 1.0 mph 6.0 mph 77 % 0.00 in
05:31 49.2 °F 42.3 °F 29.98 in West 1.0 mph 6.0 mph 77 % 0.00 in
05:36 49.2 °F 42.3 °F 29.99 in SW 1.9 mph 2.3 mph 77 % 0.01 in
05:41 49.1 °F 42.2 °F 29.99 in Calm   3.0 mph 77 % 0.00 in
05:46 49.0 °F 42.1 °F 29.99 in SW 2.0 mph 6.0 mph 77 % 0.00 in
05:51 49.0 °F 42.1 °F 29.99 in SW 2.0 mph 8.0 mph 77 % 0.00 in
05:56 48.8 °F 41.9 °F 29.99 in SW 3.0 mph 6.0 mph 77 % 0.00 in
06:01 48.8 °F 41.9 °F 29.99 in SSW 2.8 mph 5.0 mph 77 % 0.01 in
06:11 48.7 °F 42.1 °F 29.99 in SW 0.1 mph 1.2 mph 78 % 0.01 in
06:16 48.6 °F 42.0 °F 29.99 in SW 1.6 mph 3.5 mph 78 % 0.01 in
06:21 48.5 °F 42.0 °F 29.99 in Calm   1.0 mph 78 % 0.01 in
06:26 48.4 °F 41.9 °F 30.00 in WSW 1.1 mph 2.3 mph 78 % 0.00 in
06:31 48.2 °F 42.0 °F 29.99 in WSW 0.2 mph 2.0 mph 79 % 0.00 in
06:36 48.1 °F 41.9 °F 30.00 in Calm     79 % 0.00 in
06:41 47.9 °F 41.7 °F 30.00 in Calm   3.5 mph 79 % 0.00 in
06:46 47.8 °F 41.9 °F 30.00 in SW 0.1 mph 2.0 mph 80 % 0.00 in
06:51 47.7 °F 41.8 °F 30.00 in WSW 1.1 mph 3.5 mph 80 % 0.00 in
06:56 47.5 °F 41.6 °F 30.00 in WSW 0.9 mph 1.2 mph 80 % 0.00 in
07:01 47.4 °F 41.5 °F 30.00 in WSW 0.9 mph 3.5 mph 80 % 0.00 in
07:06 47.3 °F 41.8 °F 30.01 in Calm   1.0 mph 81 % 0.01 in
07:11 47.2 °F 41.7 °F 30.01 in Calm   1.2 mph 81 % 0.01 in
07:17 47.1 °F 41.9 °F 30.01 in SW 0.5 mph 2.3 mph 82 % 0.01 in
07:22 47.0 °F 41.8 °F 30.02 in Calm     82 % 0.01 in
07:27 46.9 °F 41.7 °F 30.02 in Calm     82 % 0.01 in
07:32 46.8 °F 41.6 °F 30.02 in Calm     82 % 0.01 in
07:37 46.7 °F 41.5 °F 30.02 in SW 1.4 mph 2.3 mph 82 % 0.01 in
07:42 46.5 °F 41.3 °F 30.03 in Calm   1.2 mph 82 % 0.01 in
07:47 46.4 °F 41.2 °F 30.03 in Calm   1.2 mph 82 % 0.01 in
07:52 46.3 °F 41.4 °F 30.03 in West 2.3 mph 4.0 mph 83 % 0.01 in
07:57 46.2 °F 41.3 °F 30.03 in WSW 1.8 mph 3.5 mph 83 % 0.01 in
08:02 46.2 °F 41.3 °F 30.04 in WSW 1.8 mph 3.5 mph 83 % 0.01 in
08:07 46.3 °F 41.4 °F 30.03 in WSW 0.2 mph 2.0 mph 83 % 0.00 in
08:12 46.3 °F 41.4 °F 30.04 in WNW 0.2 mph 3.5 mph 83 % 0.00 in
08:17 46.5 °F 41.6 °F 30.04 in WSW 3.5 mph 9.2 mph 83 % 0.00 in
08:22 46.7 °F 40.9 °F 30.04 in WSW 2.3 mph 8.1 mph 80 % 0.00 in
08:27 47.0 °F 40.5 °F 30.04 in West 0.7 mph 5.8 mph 78 % 0.00 in
08:33 47.4 °F 40.6 °F 30.05 in West 4.4 mph 11.5 mph 77 % 0.00 in
08:38 47.9 °F 40.7 °F 30.05 in SW 2.0 mph 6.9 mph 76 % 0.00 in
08:43 48.3 °F 41.1 °F 30.05 in WSW 2.0 mph 6.9 mph 76 % 0.01 in
08:48 48.6 °F 41.4 °F 30.05 in WSW 4.7 mph 6.9 mph 76 % 0.01 in
08:53 48.9 °F 41.7 °F 30.05 in SW 5.7 mph 9.2 mph 76 % 0.01 in
08:58 49.2 °F 40.9 °F 30.05 in SSW 4.4 mph 6.9 mph 73 % 0.01 in
09:03 49.5 °F 41.2 °F 30.05 in SW 2.4 mph 5.8 mph 73 % 0.01 in
09:08 49.6 °F 41.7 °F 30.05 in West 3.8 mph 5.8 mph 74 % 0.01 in
09:13 49.8 °F 41.1 °F 30.06 in SW 3.5 mph 5.8 mph 72 % 0.01 in
09:18 50.1 °F 41.1 °F 30.06 in SSW 4.4 mph 8.0 mph 71 % 0.01 in
09:23 50.3 °F 41.3 °F 30.06 in SSW 4.4 mph 8.1 mph 71 % 0.01 in
09:28 50.6 °F 41.2 °F 30.06 in SW 4.2 mph 5.0 mph 70 % 0.01 in
09:33 51.2 °F 41.4 °F 30.06 in SW 3.3 mph 6.9 mph 69 % 0.01 in
09:38 51.8 °F 41.2 °F 30.06 in SW 3.6 mph 6.9 mph 67 % 0.01 in
09:43 52.5 °F 41.5 °F 30.06 in WSW 4.8 mph 8.1 mph 66 % 0.00 in
09:49 52.9 °F 41.0 °F 30.06 in SSW 4.5 mph 6.9 mph 64 % 0.00 in
09:54 53.3 °F 41.0 °F 30.06 in SW 3.3 mph 8.1 mph 63 % 0.00 in
09:59 53.5 °F 41.2 °F 30.06 in WSW 5.8 mph 8.1 mph 63 % 0.00 in
10:04 53.6 °F 41.3 °F 30.06 in West 2.5 mph 4.6 mph 63 % 0.00 in
10:09 53.5 °F 39.9 °F 30.06 in West 2.1 mph 6.9 mph 60 % 0.00 in
10:14 53.7 °F 40.6 °F 30.06 in West 3.4 mph 6.9 mph 61 % 0.00 in
10:19 53.9 °F 39.9 °F 30.06 in WNW 7.7 mph 12.7 mph 59 % 0.00 in
10:24 54.0 °F 40.0 °F 30.06 in WNW 4.0 mph 10.0 mph 59 % 0.00 in
10:29 54.0 °F 39.1 °F 30.06 in WSW 7.2 mph 11.5 mph 57 % 0.00 in
10:34 54.0 °F 39.5 °F 30.06 in WNW 9.2 mph 17.3 mph 58 % 0.00 in
10:39 54.0 °F 38.6 °F 30.07 in WNW 3.4 mph 10.4 mph 56 % 0.00 in
10:44 54.2 °F 39.7 °F 30.07 in SSW 6.7 mph 15.0 mph 58 % 0.01 in
10:49 54.4 °F 39.9 °F 30.07 in SW 4.9 mph 11.5 mph 58 % 0.01 in
10:54 54.7 °F 39.8 °F 30.07 in WSW 7.5 mph 20.7 mph 57 % 0.01 in
10:59 55.0 °F 40.0 °F 30.06 in SW 4.0 mph 6.9 mph 57 % 0.01 in
11:05 55.1 °F 38.3 °F 30.06 in WNW 8.5 mph 16.1 mph 53 % 0.01 in
11:10 55.0 °F 36.7 °F 30.07 in WSW 4.7 mph 15.0 mph 50 % 0.01 in
11:15 55.2 °F 38.4 °F 30.07 in SSW 5.9 mph 10.4 mph 53 % 0.01 in
11:20 55.3 °F 37.5 °F 30.07 in West 4.6 mph 12.7 mph 51 % 0.01 in
11:25 55.3 °F 37.0 °F 30.07 in West 11.0 mph 17.3 mph 50 % 0.01 in
11:30 55.2 °F 37.4 °F 30.05 in SSW 5.6 mph 12.7 mph 51 % 0.02 in
11:35 55.1 °F 38.3 °F 30.07 in WNW 4.0 mph 8.0 mph 53 % 0.02 in
11:40 55.1 °F 37.8 °F 30.07 in SW 5.4 mph 9.2 mph 52 % 0.02 in
11:45 55.3 °F 38.4 °F 30.06 in WNW 6.7 mph 12.7 mph 53 % 0.01 in
11:50 55.6 °F 37.7 °F 30.07 in WSW 7.5 mph 15.0 mph 51 % 0.01 in
11:55 55.8 °F 37.4 °F 30.07 in WSW 8.6 mph 16.1 mph 50 % 0.01 in
12:00 55.9 °F 37.0 °F 30.04 in SW 9.0 mph 12.7 mph 49 % 0.01 in
12:05 56.0 °F 38.6 °F 30.06 in WSW 6.9 mph 12.7 mph 52 % 0.01 in
12:10 56.3 °F 39.4 °F 30.07 in NNW 5.0 mph 5.8 mph 53 % 0.01 in
12:15 56.5 °F 38.1 °F 30.07 in SSW 6.0 mph 11.5 mph 50 % 0.02 in
12:20 56.6 °F 38.7 °F 30.06 in WSW 5.9 mph 13.0 mph 51 % 0.02 in
12:22 56.6 °F 39.2 °F 30.06 in SW 6.0 mph 12.7 mph 52 % 0.02 in
12:27 56.5 °F 38.6 °F 30.06 in WNW 5.6 mph 13.8 mph 51 % 0.02 in
12:32 56.4 °F 39.0 °F 30.06 in WSW 5.2 mph 9.2 mph 52 % 0.01 in
12:37 56.3 °F 39.4 °F 30.06 in WSW 7.5 mph 16.1 mph 53 % 0.01 in
12:42 56.4 °F 39.5 °F 30.06 in WSW 5.4 mph 11.5 mph 53 % 0.01 in
12:47 56.5 °F 39.1 °F 30.06 in SW 4.7 mph 7.0 mph 52 % 0.01 in
12:52 56.7 °F 38.8 °F 30.06 in SW 5.1 mph 9.2 mph 51 % 0.01 in
12:57 56.9 °F 38.4 °F 30.06 in WSW 3.8 mph 7.0 mph 50 % 0.02 in
13:02 56.8 °F 37.8 °F 30.06 in WNW 7.6 mph 14.0 mph 49 % 0.02 in
13:07 56.6 °F 37.6 °F 30.06 in WNW 4.3 mph 15.0 mph 49 % 0.02 in
13:12 56.4 °F 38.0 °F 30.06 in WNW 8.7 mph 11.5 mph 50 % 0.02 in
13:18 56.3 °F 37.4 °F 30.05 in West 5.4 mph 12.7 mph 49 % 0.01 in
13:23 56.2 °F 38.3 °F 30.06 in WNW 7.0 mph 18.4 mph 51 % 0.01 in
13:28 56.2 °F 38.8 °F 30.05 in WNW 1.9 mph 9.2 mph 52 % 0.01 in
13:33 56.3 °F 37.9 °F 30.05 in West 7.4 mph 9.2 mph 50 % 0.01 in
13:38 56.4 °F 38.0 °F 30.06 in SW 6.3 mph 11.5 mph 50 % 0.01 in
13:43 56.8 °F 37.8 °F 30.06 in NW 5.7 mph 17.3 mph 49 % 0.01 in
13:48 57.1 °F 38.6 °F 30.06 in West 5.9 mph 15.0 mph 50 % 0.01 in
13:53 57.5 °F 38.5 °F 30.06 in WSW 7.2 mph 13.8 mph 49 % 0.01 in
13:58 57.9 °F 38.3 °F 30.06 in WSW 3.6 mph 10.4 mph 48 % 0.00 in
14:03 58.2 °F 38.6 °F 30.06 in West 5.8 mph 8.1 mph 48 % 0.00 in
14:08 58.6 °F 38.4 °F 30.07 in WNW 5.4 mph 11.5 mph 47 % 0.00 in
14:13 58.8 °F 38.6 °F 30.07 in West 8.1 mph 11.5 mph 47 % 0.00 in
14:18 59.0 °F 38.8 °F 30.07 in SW 9.9 mph 13.8 mph 47 % 0.00 in
14:23 59.1 °F 38.3 °F 30.07 in SSW 6.0 mph 12.7 mph 46 % 0.00 in
14:28 59.1 °F 38.3 °F 30.07 in WSW 9.4 mph 10.4 mph 46 % 0.00 in
14:34 59.1 °F 38.9 °F 30.07 in WSW 3.4 mph 12.7 mph 47 % 0.00 in
14:39 59.1 °F 37.8 °F 30.07 in SSW 8.0 mph 11.5 mph 45 % 0.00 in
14:44 59.2 °F 38.4 °F 30.07 in WSW 5.6 mph 11.5 mph 46 % 0.00 in
14:49 59.1 °F 38.3 °F 30.07 in NW 6.8 mph 11.5 mph 46 % 0.00 in
14:54 59.1 °F 38.9 °F 30.07 in West 7.3 mph 11.5 mph 47 % 0.00 in
14:59 59.0 °F 38.8 °F 30.07 in SW 6.5 mph 11.5 mph 47 % 0.00 in
15:04 58.8 °F 38.6 °F 30.07 in SW 7.5 mph 12.7 mph 47 % 0.00 in
15:09 58.6 °F 38.4 °F 30.07 in WNW 3.6 mph 11.5 mph 47 % 0.00 in
15:14 58.5 °F 38.9 °F 30.07 in WSW 5.4 mph 6.0 mph 48 % 0.00 in
15:19 58.3 °F 37.6 °F 30.08 in SW 2.0 mph 8.1 mph 46 % 0.00 in
15:24 58.1 °F 37.4 °F 30.08 in WSW 4.2 mph 10.4 mph 46 % 0.00 in
15:29 58.0 °F 37.9 °F 30.07 in SSW 3.2 mph 7.0 mph 47 % 0.00 in
15:34 57.8 °F 38.2 °F 30.08 in WNW 4.7 mph 8.1 mph 48 % 0.00 in
15:39 57.6 °F 37.5 °F 30.08 in West 6.7 mph 9.0 mph 47 % 0.00 in
15:44 57.4 °F 36.8 °F 30.08 in WSW 5.3 mph 11.5 mph 46 % 0.00 in
15:49 57.2 °F 36.6 °F 30.08 in SW 4.6 mph 16.1 mph 46 % 0.00 in
15:55 57.1 °F 37.0 °F 30.09 in West 4.5 mph 7.0 mph 47 % 0.00 in
16:00 56.9 °F 36.9 °F 30.08 in SSW 5.2 mph 11.5 mph 47 % 0.00 in
16:05 56.9 °F 36.9 °F 30.09 in SW 3.5 mph 9.2 mph 47 % 0.00 in
16:10 56.7 °F 36.1 °F 30.09 in West 5.6 mph 11.5 mph 46 % 0.00 in
16:15 56.6 °F 36.6 °F 30.09 in NW 1.6 mph 4.6 mph 47 % 0.00 in
16:20 56.5 °F 36.5 °F 30.09 in WSW 3.3 mph 6.9 mph 47 % 0.00 in
16:25 56.3 °F 35.2 °F 30.09 in SW 5.3 mph 12.7 mph 45 % 0.00 in
16:30 56.2 °F 35.7 °F 30.09 in WNW 0.6 mph 9.2 mph 46 % 0.00 in
16:35 56.2 °F 36.8 °F 30.10 in SW 5.7 mph 10.4 mph 48 % 0.00 in
16:40 56.1 °F 36.7 °F 30.10 in WNW 4.4 mph 8.0 mph 48 % 0.00 in
16:45 55.9 °F 35.4 °F 30.10 in WSW 5.5 mph 15.0 mph 46 % 0.00 in
16:50 55.8 °F 35.9 °F 30.10 in South 5.0 mph 6.9 mph 47 % 0.00 in
16:55 55.7 °F 35.8 °F 30.10 in SW 3.4 mph 8.1 mph 47 % 0.00 in
17:00 55.6 °F 35.7 °F 30.11 in WSW 1.3 mph 5.8 mph 47 % 0.00 in
17:05 55.5 °F 35.6 °F 30.11 in WNW 4.8 mph 8.1 mph 47 % 0.00 in
17:11 55.4 °F 36.0 °F 30.11 in SW 6.4 mph 9.0 mph 48 % 0.00 in
17:16 55.3 °F 35.9 °F 30.11 in WSW 3.0 mph 10.0 mph 48 % 0.00 in
17:21 55.1 °F 36.3 °F 30.11 in WSW 3.8 mph 5.0 mph 49 % 0.00 in
17:26 54.9 °F 35.6 °F 30.12 in WSW 2.0 mph 15.0 mph 48 % 0.00 in
17:31 54.8 °F 35.5 °F 30.12 in West 5.0 mph 12.0 mph 48 % 0.00 in
17:36 54.6 °F 34.8 °F 30.12 in West 6.0 mph 13.0 mph 47 % 0.00 in
17:41 54.5 °F 34.7 °F 30.13 in West 3.0 mph 12.0 mph 47 % 0.00 in
17:46 54.5 °F 35.7 °F 30.13 in West 2.0 mph 7.0 mph 49 % 0.00 in
17:51 54.4 °F 35.1 °F 30.13 in West 2.0 mph 8.0 mph 48 % 0.00 in
17:56 54.3 °F 36.0 °F 30.13 in WSW 3.0 mph 7.0 mph 50 % 0.00 in
18:01 54.2 °F 35.9 °F 30.14 in WSW 1.7 mph 3.5 mph 50 % 0.00 in
18:06 54.0 °F 35.8 °F 30.14 in Calm   7.0 mph 50 % 0.00 in
18:11 53.9 °F 35.7 °F 30.14 in Calm   3.0 mph 50 % 0.00 in
18:16 53.7 °F 36.5 °F 30.15 in WSW 2.0 mph 6.0 mph 52 % 0.00 in
18:21 53.5 °F 36.8 °F 30.15 in WSW 1.0 mph 3.0 mph 53 % 0.00 in
18:26 53.4 °F 36.7 °F 30.15 in SW 2.2 mph 3.5 mph 53 % 0.00 in
18:31 53.1 °F 36.4 °F 30.16 in Calm   3.0 mph 53 % 0.00 in
18:36 52.9 °F 36.2 °F 30.16 in Calm   2.0 mph 53 % 0.00 in
18:41 52.6 °F 35.9 °F 30.16 in Calm   2.3 mph 53 % 0.00 in
18:46 52.4 °F 36.2 °F 30.16 in SW 1.0 mph 3.0 mph 54 % 0.00 in
18:51 52.1 °F 36.0 °F 30.16 in SW 1.0 mph 4.0 mph 54 % 0.00 in
18:56 51.9 °F 36.2 °F 30.16 in SW 1.0 mph 4.0 mph 55 % 0.00 in
19:01 51.6 °F 36.4 °F 30.16 in Calm   1.2 mph 56 % 0.00 in
19:06 51.4 °F 36.2 °F 30.17 in SW 0.7 mph 2.3 mph 56 % 0.00 in
19:11 51.1 °F 35.9 °F 30.17 in West 0.6 mph 2.3 mph 56 % 0.00 in
19:16 50.9 °F 36.6 °F 30.17 in Calm   1.2 mph 58 % 0.00 in
19:21 50.6 °F 36.4 °F 30.17 in Calm   1.2 mph 58 % 0.00 in
19:26 50.5 °F 36.7 °F 30.17 in WSW 0.8 mph 3.5 mph 59 % 0.00 in
19:31 50.3 °F 36.5 °F 30.18 in WSW 0.1 mph 1.2 mph 59 % 0.00 in
19:36 50.1 °F 36.7 °F 30.18 in Calm     60 % 0.00 in
19:41 49.8 °F 36.5 °F 30.18 in SW 1.8 mph 2.3 mph 60 % 0.00 in
19:46 49.6 °F 36.3 °F 30.18 in SW 1.3 mph 3.5 mph 60 % 0.00 in
19:51 49.4 °F 36.5 °F 30.18 in SW 1.2 mph 3.5 mph 61 % 0.00 in
19:56 49.2 °F 36.3 °F 30.19 in Calm     61 % 0.00 in
20:01 49.0 °F 36.5 °F 30.19 in Calm   1.2 mph 62 % 0.00 in
20:07 48.7 °F 37.1 °F 30.18 in Calm     64 % 0.00 in
20:12 48.5 °F 36.5 °F 30.19 in SW 0.2 mph 1.2 mph 63 % 0.00 in
20:17 48.2 °F 36.6 °F 30.19 in SW 1.1 mph 2.3 mph 64 % 0.00 in
20:22 48.0 °F 36.4 °F 30.19 in Calm     64 % 0.00 in
20:27 47.8 °F 36.2 °F 30.19 in SW 0.5 mph 1.2 mph 64 % 0.00 in
20:32 47.6 °F 36.0 °F 30.20 in Calm     64 % 0.00 in
20:37 47.4 °F 36.2 °F 30.20 in SW 1.6 mph 3.5 mph 65 % 0.00 in
20:42 47.2 °F 36.0 °F 30.20 in SW 0.1 mph 2.3 mph 65 % 0.00 in
20:47 47.0 °F 36.2 °F 30.21 in SW 1.0 mph 2.3 mph 66 % 0.00 in
20:52 46.9 °F 36.5 °F 30.21 in SW 0.2 mph 3.5 mph 67 % 0.00 in
20:57 46.7 °F 36.7 °F 30.21 in SW 0.7 mph 3.0 mph 68 % 0.00 in
21:02 46.7 °F 36.7 °F 30.22 in SW 0.3 mph 1.2 mph 68 % 0.00 in
21:07 46.5 °F 36.5 °F 30.22 in SW 0.3 mph 2.3 mph 68 % 0.00 in
21:12 46.5 °F 36.9 °F 30.22 in SW 1.7 mph 3.5 mph 69 % 0.00 in
21:17 46.4 °F 37.1 °F 30.22 in SW 0.9 mph 2.3 mph 70 % 0.00 in
21:22 46.3 °F 36.7 °F 30.22 in SW 0.4 mph 2.3 mph 69 % 0.01 in
21:28 46.1 °F 36.9 °F 30.23 in WSW 0.2 mph 1.2 mph 70 % 0.01 in
21:33 46.0 °F 36.4 °F 30.23 in WSW 0.9 mph 3.5 mph 69 % 0.01 in
21:38 45.9 °F 36.7 °F 30.23 in WSW 0.2 mph 2.3 mph 70 % 0.01 in
21:43 45.9 °F 36.7 °F 30.23 in WSW 1.9 mph 3.5 mph 70 % 0.01 in
21:48 45.8 °F 36.6 °F 30.24 in WSW 1.0 mph 3.5 mph 70 % 0.01 in
21:49 45.8 °F 36.6 °F 30.24 in Calm   1.2 mph 70 % 0.01 in
21:54 45.7 °F 36.5 °F 30.24 in WSW 1.6 mph 2.3 mph 70 % 0.01 in
21:59 45.6 °F 36.4 °F 30.24 in WSW 0.5 mph 1.2 mph 70 % 0.01 in
22:05 45.6 °F 36.7 °F 30.24 in WSW 1.3 mph 3.5 mph 71 % 0.01 in
22:10 45.7 °F 36.8 °F 30.25 in WSW 0.5 mph 2.3 mph 71 % 0.01 in
22:15 45.7 °F 37.2 °F 30.25 in WNW 1.2 mph 3.5 mph 72 % 0.01 in
22:20 45.6 °F 36.7 °F 30.25 in NW 2.2 mph 5.8 mph 71 % 0.00 in
22:25 45.8 °F 36.2 °F 30.25 in West 4.0 mph 9.2 mph 69 % 0.00 in
22:30 46.1 °F 35.7 °F 30.26 in WSW 3.1 mph 6.9 mph 67 % 0.00 in
22:35 46.6 °F 35.8 °F 30.26 in SW 3.3 mph 5.8 mph 66 % 0.00 in
22:40 46.9 °F 36.1 °F 30.27 in WNW 0.9 mph 3.0 mph 66 % 0.00 in
22:45 47.2 °F 36.0 °F 30.26 in West 3.3 mph 5.8 mph 65 % 0.00 in
22:50 47.6 °F 36.4 °F 30.26 in West 4.0 mph 8.1 mph 65 % 0.00 in
22:55 47.8 °F 36.2 °F 30.26 in West 5.7 mph 11.5 mph 64 % 0.00 in
23:00 48.0 °F 36.0 °F 30.27 in WSW 3.4 mph 5.8 mph 63 % 0.00 in
23:05 48.2 °F 36.2 °F 30.26 in WSW 5.0 mph 8.1 mph 63 % 0.00 in
23:10 48.4 °F 36.4 °F 30.26 in West 3.9 mph 8.1 mph 63 % 0.00 in
23:16 48.5 °F 36.1 °F 30.27 in WSW 1.7 mph 8.1 mph 62 % 0.00 in
23:21 48.5 °F 36.5 °F 30.27 in WSW 0.2 mph 2.3 mph 63 % 0.00 in
23:23 48.5 °F 36.5 °F 30.27 in SW 2.5 mph 4.6 mph 63 % 0.00 in
23:27 48.5 °F 36.5 °F 30.27 in West 3.4 mph 4.6 mph 63 % 0.00 in
23:28 48.5 °F 36.5 °F 30.27 in WSW 5.0 mph 6.9 mph 63 % 0.00 in
23:29 48.5 °F 36.5 °F 30.03 in West 3.4 mph 8.1 mph 63 % 0.00 in
23:33 48.5 °F 36.5 °F 30.27 in SW 3.2 mph 6.0 mph 63 % 0.00 in
23:38 48.5 °F 36.5 °F 30.27 in SSW 2.2 mph 4.0 mph 63 % 0.00 in
23:43 48.5 °F 36.5 °F 30.27 in NW 3.9 mph 9.2 mph 63 % 0.00 in
23:48 48.4 °F 36.4 °F 30.28 in WSW 0.4 mph 2.3 mph 63 % 0.00 in
23:53 48.4 °F 36.4 °F 30.28 in WSW 3.1 mph 6.9 mph 63 % 0.00 in
23:58 48.3 °F 36.3 °F 30.28 in West 1.3 mph 7.0 mph 63 % 0.00 in
Crab Meadow Weather
Compliments of Weather Underground - 3 mb

Script developed by  Jim McMurry - jmcmurry@mwt.net Adapted for the template by  Wim van der Kuil - Leuven-Template.eu

Weather Terms: Frost Advisory - Widespread frost during the growing season. Frost generally occurs with fair skies and light winds.